EW0401 Weather Reports


Display with metric or nautical units.
time (UTC)temp
F
wind
direction
speed
MPH
gust
MPH
rain 1hr
in
rain 24hr
in
rain mn
in
humidity
%
barometer
mb
20240524093102 80 175 0.0 3.0 0.00 0.00 0.00 90 1008.5
20240524092603 80 175 0.0 3.0 0.00 0.00 0.00 90 1008.4
20240524092103 80 193 0.0 3.0 0.00 0.00 0.00 90 1008.2
20240524091602 80 150 1.0 6.0 0.00 0.00 0.00 90 1008.3
20240524091102 80 201 1.0 6.0 0.00 0.00 0.00 90 1008.3
20240524090602 80 133 0.0 6.0 0.00 0.00 0.00 90 1008.3
20240524090103 80 175 2.0 5.0 0.00 0.00 0.00 90 1008.4
20240524085603 80 207 1.0 5.0 0.00 0.00 0.00 90 1008.5
20240524085103 80 169 1.0 3.0 0.00 0.00 0.00 90 1008.4
20240524084603 80 176 0.0 3.0 0.00 0.00 0.00 90 1008.4
20240524084102 80 189 0.0 3.0 0.00 0.00 0.00 90 1008.4
20240524083102 80 182 1.0 10.0 0.00 0.00 0.00 89 1008.3
20240524082603 80 270 0.0 2.0 0.00 0.00 0.00 89 1008.3
20240524082103 80 179 0.0 5.0 0.00 0.00 0.00 89 1008.3
20240524081103 80 181 0.0 9.0 0.00 0.00 0.00 89 1008.3
20240524080602 80 168 1.0 6.0 0.00 0.00 0.00 89 1008.5
20240524080102 80 189 0.0 3.0 0.00 0.00 0.00 89 1008.6
20240524075602 80 191 0.0 2.0 0.00 0.00 0.00 89 1008.7
20240524075103 80 197 0.0 3.0 0.00 0.00 0.00 89 1008.7
20240524074603 80 155 0.0 2.0 0.00 0.00 0.00 89 1008.7
20240524074102 80 246 0.0 2.0 0.00 0.00 0.00 89 1008.7
20240524073603 80 181 0.0 2.0 0.00 0.00 0.00 89 1008.8
20240524073102 80 157 0.0 8.0 0.00 0.00 0.00 89 1008.8
20240524072602 80 192 1.0 6.0 0.00 0.00 0.00 89 1008.9
20240524072102 80 165 0.0 3.0 0.00 0.00 0.00 89 1009.1
20240524071602 80 183 1.0 5.0 0.00 0.00 0.00 89 1009.2
20240524071103 80 169 0.0 5.0 0.00 0.00 0.00 89 1009.2
20240524070603 80 221 0.0 2.0 0.00 0.00 0.00 89 1009.2
20240524065602 80 133 1.0 5.0 0.00 0.00 0.00 89 1009.3
20240524065102 80 178 1.0 6.0 0.00 0.00 0.00 89 1009.4
20240524064102 80 169 1.0 5.0 0.00 0.00 0.00 89 1009.3
20240524063603 80 178 1.0 5.0 0.00 0.00 0.00 89 1009.4
20240524063103 80 66 1.0 12.0 0.00 0.00 0.00 89 1009.7
20240524062103 80 180 1.0 3.0 0.00 0.00 0.00 89 1010.0
20240524061603 80 208 0.0 3.0 0.00 0.00 0.00 89 1010.0
20240524061102 80 154 1.0 5.0 0.00 0.00 0.00 89 1010.0
20240524060103 80 232 1.0 6.0 0.00 0.00 0.00 89 1010.1
20240524055603 80 166 1.0 5.0 0.00 0.00 0.00 89 1010.0
20240524055103 80 193 0.0 3.0 0.00 0.00 0.00 89 1010.0
20240524054603 80 180 0.0 5.0 0.00 0.00 0.00 89 1010.0
20240524054103 80 170 1.0 3.0 0.00 0.00 0.00 89 1010.0
20240524053602 80 223 0.0 3.0 0.00 0.00 0.00 89 1010.0
20240524053103 80 232 1.0 5.0 0.00 0.00 0.00 89 1010.0
20240524052602 80 194 0.0 3.0 0.00 0.00 0.00 89 1010.0
20240524052102 80 188 1.0 6.0 0.00 0.00 0.00 89 1010.0
20240524051602 80 167 1.0 7.0 0.00 0.00 0.00 89 1010.2
20240524051104 80 174 1.0 3.0 0.00 0.00 0.00 89 1010.3
20240524050603 80 187 0.0 2.0 0.00 0.00 0.00 89 1010.3
20240524050103 80 188 1.0 5.0 0.00 0.00 0.00 89 1010.3
20240524045103 80 176 0.0 8.0 0.00 0.00 0.00 89 1010.4
20240524044603 80 236 0.0 3.0 0.00 0.00 0.00 89 1010.4
20240524044103 80 186 1.0 5.0 0.00 0.00 0.00 89 1010.5
20240524043603 80 189 0.0 3.0 0.00 0.00 0.00 89 1010.6
20240524043103 80 181 0.0 3.0 0.00 0.00 0.00 89 1010.8
20240524042102 80 159 0.0 3.0 0.00 0.00 0.00 89 1010.9
20240524041603 80 189 0.0 2.0 0.00 0.00 0.00 89 1010.7
20240524041103 80 143 1.0 3.0 0.00 0.00 0.00 88 1010.7
20240524040602 80 22 0.0 2.0 0.00 0.00 0.00 88 1010.8
20240524040103 80 215 0.0 2.0 0.00 0.00 0.00 88 1010.9
20240524035603 80 341 0.0 2.0 0.00 0.00 0.00 88 1010.9
20240524035102 80 84 0.0 2.0 0.00 0.00 0.00 88 1011.0
20240524034603 81 211 0.0 3.0 0.00 0.00 0.00 88 1011.1
20240524034102 81 254 0.0 0.0 0.00 0.00 0.00 88 1011.1
20240524033603 81 305 0.0 2.0 0.00 0.00 0.00 88 1011.2
20240524033103 81 200 0.0 2.0 0.00 0.00 0.00 88 1011.2
20240524032602 81 236 0.0 0.0 0.00 0.00 0.00 88 1011.3
20240524032103 81 234 0.0 2.0 0.00 0.00 0.00 87 1011.2
20240524031103 81 234 0.0 2.0 0.00 0.00 0.00 87 1011.2
20240524030603 81 195 0.0 2.0 0.00 0.00 0.00 87 1011.2
20240524030103 81 137 0.0 2.0 0.00 0.00 0.00 86 1011.2
20240524025603 81 138 0.0 2.0 0.00 0.00 0.00 86 1011.2
20240524025103 81 242 0.0 0.0 0.00 0.00 0.00 86 1011.1
20240524024603 81 242 0.0 1.0 0.00 0.00 0.00 86 1011.1
20240524024103 81 171 0.0 1.0 0.00 0.00 0.00 86 1011.1
20240524023603 81 118 0.0 2.0 0.00 0.00 0.00 85 1011.0
20240524023102 81 194 0.0 2.0 0.00 0.00 0.00 85 1010.9
20240524022603 81 194 0.0 2.0 0.00 0.00 0.00 85 1010.8
20240524022103 81 194 0.0 0.0 0.00 0.00 0.00 84 1010.7
20240524021602 81 195 0.0 1.0 0.00 0.00 0.00 84 1010.7
20240524021102 82 196 0.0 0.0 0.00 0.00 0.00 84 1010.8
20240524020603 82 196 0.0 2.0 0.00 0.00 0.00 84 1010.8
20240524020102 82 199 0.0 1.0 0.00 0.00 0.00 84 1010.6
20240524015603 82 173 0.0 0.0 0.00 0.00 0.00 84 1010.6
20240524014603 82 173 0.0 0.0 0.00 0.00 0.00 83 1010.5
20240524014102 82 173 0.0 1.0 0.00 0.00 0.00 83 1010.5
20240524013602 82 26 0.0 2.0 0.00 0.00 0.00 83 1010.4
20240524013103 82 203 0.0 2.0 0.00 0.00 0.00 83 1010.3
20240524012602 82 199 0.0 3.0 0.00 0.00 0.00 83 1010.4
20240524011603 83 357 0.0 3.0 0.00 0.00 0.00 83 1010.5
20240524011103 83 5 0.0 0.0 0.00 0.00 0.00 82 1010.5
20240524010602 83 5 0.0 2.0 0.00 0.00 0.00 82 1010.2
20240524010102 83 10 0.0 2.0 0.00 0.00 0.00 82 1010.0
20240524005602 83 285 0.0 2.0 0.00 0.00 0.00 82 1009.9
20240524005103 83 131 0.0 0.0 0.00 0.00 0.00 82 1010.1
20240524004603 83 131 0.0 3.0 0.00 0.00 0.00 82 1010.2
20240524004103 83 214 0.0 1.0 0.00 0.00 0.00 82 1010.2
20240524003603 83 214 0.0 0.0 0.00 0.00 0.00 81 1010.0
20240524003103 84 214 1.0 3.0 0.00 0.00 0.00 81 1009.8
20240524002603 84 224 0.0 2.0 0.00 0.00 0.00 81 1009.9
20240524001602 84 223 0.0 1.0 0.00 0.00 0.00 80 1009.9
20240524001103 84 223 0.0 0.0 0.00 0.00 0.00 80 1009.8
20240524000603 85 223 0.0 2.0 0.00 0.00 0.00 79 1009.9
20240524000103 85 244 0.0 2.0 0.00 0.00 0.00 79 1009.8
20240523235603 85 255 0.0 2.0 0.00 0.00 0.00 79 1009.8
20240523235103 85 225 0.0 2.0 0.00 0.00 0.00 78 1009.7
20240523234603 86 202 1.0 3.0 0.00 0.00 0.00 78 1009.6
20240523234103 86 143 0.0 7.0 0.00 0.00 0.00 78 1009.6
20240523233103 86 173 1.0 5.0 0.00 0.00 0.00 76 1009.5
20240523232603 86 166 0.0 2.0 0.00 0.00 0.00 77 1009.5
20240523231602 86 239 0.0 3.0 0.00 0.00 0.00 78 1009.7
20240523231103 86 179 0.0 6.0 0.00 0.00 0.00 77 1009.7
20240523230603 86 185 1.0 7.0 0.00 0.00 0.00 77 1009.8
20240523230102 86 189 1.0 6.0 0.00 0.00 0.00 77 1009.8
20240523225603 86 60 0.0 3.0 0.00 0.00 0.00 77 1009.9
20240523225103 87 178 1.0 5.0 0.00 0.00 0.00 77 1009.8
20240523224602 87 167 1.0 5.0 0.00 0.00 0.00 76 1009.7
20240523224103 87 160 1.0 7.0 0.00 0.00 0.00 77 1009.8
20240523223602 87 169 0.0 2.0 0.00 0.00 0.00 77 1009.9
20240523223102 87 205 0.0 3.0 0.00 0.00 0.00 77 1010.0
20240523222603 87 165 1.0 3.0 0.00 0.00 0.00 76 1010.1
20240523222103 87 229 0.0 3.0 0.00 0.00 0.00 78 1010.2
20240523221103 87 190 0.0 5.0 0.00 0.00 0.00 76 1010.3
20240523220603 87 177 0.0 3.0 0.00 0.00 0.00 76 1010.3
20240523220102 87 187 0.0 6.0 0.00 0.00 0.00 76 1010.3
20240523215603 87 174 2.0 9.0 0.00 0.00 0.00 75 1010.3
20240523215102 87 183 1.0 6.0 0.00 0.00 0.00 77 1010.2
20240523214603 87 192 1.0 3.0 0.00 0.00 0.00 78 1010.3
20240523214103 87 135 0.0 2.0 0.00 0.00 0.00 78 1010.4
20240523213603 87 224 1.0 6.0 0.00 0.00 0.00 78 1010.5
20240523212102 87 213 1.0 3.0 0.00 0.00 0.00 78 1010.6
20240523211603 87 189 1.0 6.0 0.00 0.00 0.00 78 1010.6
20240523211102 87 181 2.0 7.0 0.00 0.00 0.00 78 1010.5
20240523205602 87 97 1.0 8.0 0.00 0.00 0.00 77 1010.7
20240523205102 88 131 0.0 6.0 0.00 0.00 0.00 77 1010.6
20240523204603 88 182 1.0 3.0 0.00 0.00 0.00 77 1010.7
20240523204103 88 129 1.0 5.0 0.00 0.00 0.00 77 1010.7
20240523203602 88 181 0.0 5.0 0.00 0.00 0.00 76 1010.7
20240523203103 88 170 1.0 6.0 0.00 0.00 0.00 76 1010.7
20240523202603 88 179 1.0 5.0 0.00 0.00 0.00 76 1010.9
20240523202103 88 183 2.0 9.0 0.00 0.00 0.00 75 1010.9
20240523201102 89 176 2.0 10.0 0.00 0.00 0.00 75 1011.0
20240523200103 89 181 1.0 7.0 0.00 0.00 0.00 75 1011.0
20240523195603 89 207 2.0 3.0 0.00 0.00 0.00 75 1011.0
20240523195103 89 157 1.0 5.0 0.00 0.00 0.00 75 1011.1
20240523194602 89 206 1.0 3.0 0.00 0.00 0.00 75 1011.2
20240523193103 89 215 0.0 3.0 0.00 0.00 0.00 75 1011.3
20240523192603 89 169 1.0 5.0 0.00 0.00 0.00 75 1011.4
20240523192103 89 166 1.0 3.0 0.00 0.00 0.00 73 1011.3
20240523191603 89 232 1.0 3.0 0.00 0.00 0.00 74 1011.4
20240523190603 89 167 1.0 3.0 0.00 0.00 0.00 74 1011.4
20240523190103 89 215 1.0 3.0 0.00 0.00 0.00 75 1011.3
20240523185602 89 189 0.0 5.0 0.00 0.00 0.00 74 1011.5
20240523185103 89 171 1.0 7.0 0.00 0.00 0.00 75 1011.4
20240523184603 89 143 0.0 3.0 0.00 0.00 0.00 74 1011.6
20240523183603 88 176 1.0 5.0 0.00 0.00 0.00 75 1011.6
20240523183103 88 135 1.0 7.0 0.00 0.00 0.00 75 1011.6
20240523182602 88 200 1.0 3.0 0.00 0.00 0.00 75 1011.7
20240523182103 88 175 1.0 3.0 0.00 0.00 0.00 75 1011.8
20240523181603 88 290 0.0 8.0 0.00 0.00 0.00 75 1012.0
20240523181103 88 180 1.0 5.0 0.00 0.00 0.00 74 1012.0
20240523180603 89 216 0.0 6.0 0.00 0.00 0.00 73 1012.1
20240523180103 89 183 0.0 3.0 0.00 0.00 0.00 74 1012.2
20240523175603 89 216 1.0 6.0 0.00 0.00 0.00 74 1012.2
20240523175103 89 242 1.0 2.0 0.00 0.00 0.00 74 1012.3
20240523174602 89 156 0.0 3.0 0.00 0.00 0.00 74 1012.4
20240523174103 89 159 1.0 5.0 0.00 0.00 0.00 74 1012.4
20240523173602 89 216 0.0 3.0 0.00 0.00 0.00 75 1012.5
20240523173103 89 142 0.0 2.0 0.00 0.00 0.00 75 1012.4
20240523172603 89 175 0.0 3.0 0.00 0.00 0.00 76 1012.4
20240523172102 88 164 0.0 2.0 0.00 0.00 0.00 77 1012.4
20240523171603 88 238 1.0 3.0 0.00 0.00 0.00 76 1012.4
20240523171103 88 266 1.0 12.0 0.00 0.00 0.00 75 1012.3
20240523170602 88 259 1.0 6.0 0.00 0.00 0.00 75 1012.3
20240523170103 88 241 0.0 6.0 0.00 0.00 0.00 76 1012.3
20240523165103 88 182 1.0 3.0 0.00 0.00 0.00 77 1012.4
20240523164603 88 209 1.0 10.0 0.00 0.00 0.00 76 1012.4
20240523164103 88 234 1.0 6.0 0.00 0.00 0.00 76 1012.3
20240523163603 88 165 1.0 6.0 0.00 0.00 0.00 76 1012.3
20240523163103 88 188 1.0 8.0 0.00 0.00 0.00 75 1012.3
20240523162103 88 164 3.0 10.0 0.00 0.00 0.00 77 1012.3
20240523161103 87 175 1.0 9.0 0.00 0.00 0.00 76 1012.1
20240523160603 88 174 0.0 3.0 0.00 0.00 0.00 77 1012.1
20240523160102 87 178 1.0 5.0 0.00 0.00 0.00 77 1012.0
20240523155603 87 198 1.0 7.0 0.00 0.00 0.00 77 1011.9
20240523155103 87 242 1.0 6.0 0.00 0.00 0.00 79 1011.9
20240523154603 86 216 0.0 5.0 0.00 0.00 0.00 78 1011.9
20240523152603 86 175 4.0 12.0 0.00 0.00 0.00 77 1011.6
20240523151603 86 212 1.0 6.0 0.00 0.00 0.00 80 1011.5
20240523150603 85 164 2.0 8.0 0.00 0.00 0.00 80 1011.4
20240523145603 85 186 1.0 7.0 0.00 0.00 0.00 80 1011.6
20240523145103 85 151 2.0 6.0 0.00 0.00 0.00 81 1011.5
20240523144603 84 155 1.0 6.0 0.00 0.00 0.00 81 1011.6
20240523144103 84 201 1.0 7.0 0.00 0.00 0.00 81 1011.7
20240523143603 84 199 3.0 8.0 0.00 0.00 0.00 81 1011.7
20240523143103 84 179 2.0 6.0 0.00 0.00 0.00 82 1011.6
20240523142603 84 201 1.0 12.0 0.00 0.00 0.00 83 1011.6
20240523142103 84 176 1.0 3.0 0.00 0.00 0.00 83 1011.7
20240523141603 83 163 1.0 5.0 0.00 0.00 0.00 83 1011.7
20240523141103 83 158 1.0 6.0 0.00 0.00 0.00 84 1011.7
20240523140103 83 163 1.0 6.0 0.00 0.00 0.00 84 1011.6
20240523135603 83 187 1.0 6.0 0.00 0.00 0.00 84 1011.7
20240523135102 83 180 0.0 7.0 0.00 0.00 0.00 85 1011.6
20240523134603 82 134 2.0 7.0 0.00 0.00 0.00 85 1011.4
20240523134103 82 163 1.0 5.0 0.00 0.00 0.00 85 1011.5
20240523133603 82 181 2.0 8.0 0.00 0.00 0.00 85 1011.5
20240523132602 82 203 0.0 5.0 0.00 0.00 0.00 86 1011.2
20240523131603 82 225 1.0 7.0 0.00 0.00 0.00 87 1011.3
20240523131103 81 172 1.0 5.0 0.00 0.00 0.00 87 1011.3
20240523130603 81 166 1.0 6.0 0.00 0.00 0.00 87 1011.3
20240523125603 81 182 1.0 6.0 0.00 0.00 0.00 88 1011.2
20240523124602 80 197 0.0 3.0 0.00 0.00 0.00 89 1011.0
20240523124103 80 208 0.0 3.0 0.00 0.00 0.00 89 1011.1
20240523123603 80 204 1.0 3.0 0.00 0.00 0.00 89 1010.9
20240523123103 80 169 1.0 3.0 0.00 0.00 0.00 89 1010.9
20240523122603 80 198 0.0 2.0 0.00 0.00 0.00 89 1010.9
20240523122028 80 194 1.0 8.0 0.00 0.00 0.00 89 1011.0
20240523121616 80 171 2.0 8.0 0.00 0.00 0.00 89 1010.9
20240523121536 80 161 2.0 8.0 0.00 0.00 0.00 89 1011.0
20240523121046 80 169 1.0 8.0 0.00 0.00 0.00 90 1011.0
20240523120547 80 191 1.0 6.0 0.00 0.00 0.00 90 1010.9
20240523120100 79 177 0.0 6.0 0.00 0.00 0.00 89 1010.8
20240523120035 80 196 1.0 6.0 0.00 0.00 0.00 89 1010.9
20240523115526 80 184 1.0 9.0 0.00 0.00 0.00 89 1010.9
20240523115028 80 211 0.0 9.0 0.00 0.00 0.00 89 1010.8
20240523114606 80 160 1.0 8.0 0.00 0.00 0.00 89 1010.9
20240523114525 79 150 1.0 8.0 0.00 0.00 0.00 89 1010.8
20240523114047 80 186 1.0 9.0 0.00 0.00 0.00 90 1010.8
20240523113654 80 188 1.0 5.0 0.00 0.00 0.00 90 1010.5
20240523113229 80 113 0.0 3.0 0.00 0.00 0.00 90 1012.6
20240523113055 84 158 0.0 7.0 0.00 0.00 0.00 84 1012.2
20240523112603 79 173 1.0 12.0 0.00 0.00 0.00 89 1010.7
20240523112103 79 178 0.0 5.0 0.00 0.00 0.00 89 1010.6
20240523111603 79 184 1.0 7.0 0.00 0.00 0.00 89 1010.5
20240523111103 79 55 1.0 5.0 0.00 0.00 0.00 89 1010.4
20240523110603 80 183 1.0 6.0 0.00 0.00 0.00 89 1010.5
20240523110103 80 187 1.0 3.0 0.00 0.00 0.00 89 1010.6
20240523105602 80 224 1.0 6.0 0.00 0.00 0.00 89 1010.6
20240523105103 80 179 1.0 10.0 0.00 0.00 0.00 89 1010.7
20240523104603 80 186 0.0 9.0 0.00 0.00 0.00 89 1010.7
20240523103603 80 173 2.0 6.0 0.00 0.00 0.00 89 1010.7
20240523103103 80 172 0.0 2.0 0.00 0.00 0.00 89 1010.8
20240523102603 80 181 1.0 5.0 0.00 0.00 0.00 89 1010.8
20240523102103 80 176 1.0 6.0 0.00 0.00 0.00 89 1010.8
20240523101602 80 183 0.0 3.0 0.00 0.00 0.00 89 1010.7
20240523100603 80 180 1.0 3.0 0.00 0.00 0.00 89 1010.9
20240523100103 80 191 0.0 3.0 0.00 0.00 0.00 89 1011.0
20240523095603 80 144 1.0 7.0 0.00 0.00 0.00 89 1011.1
20240523095103 80 184 2.0 7.0 0.00 0.00 0.00 89 1011.1
20240523094602 80 223 2.0 8.0 0.00 0.00 0.00 89 1011.3
20240523094102 80 174 1.0 3.0 0.00 0.00 0.00 89 1011.3
20240523093603 80 176 1.0 5.0 0.00 0.00 0.00 89 1011.4